Theta_e
288 287 287 285 285 284 283 282 280 280 279 279 279 279 279 278 278 278 278 278 277 277 277 277 276 276 275 274 274 274 273 273 271 272 273 273 273 274 275 275 276 276 277
286 285 286 284 284 283 282 281 279 279 279 279 279 279 279 279 278 278 278 277 277 276 276 276 275 276 274 274 273 273 273 273 272 270 271 272 272 273 274 274 276 277 276
285 284 283 283 283 283 281 279 279 279 279 279 279 279 279 279 278 278 278 278 277 277 277 276 275 274 273 273 272 272 272 274 272 271 270 272 273 274 274 275 275 275 276
284 283 283 283 283 282 281 280 279 279 279 279 279 279 279 279 279 279 278 277 277 278 277 276 275 274 274 273 273 272 273 271 271 271 271 271 272 274 274 272 272 274 274
284 283 283 283 283 282 280 280 280 279 279 279 279 279 279 278 278 278 278 277 277 276 276 276 276 276 278 276 274 273 272 271 271 270 271 271 272 272 272 273 271 272 273
283 283 283 281 281 280 280 280 279 279 279 279 278 278 277 278 282 283 279 277 277 276 275 275 275 276 278 281 281 281 276 270 262 264 271 271 272 273 273 272 271 271 268
283 282 281 281 281 281 281 280 279 279 279 278 278 277 277 278 283 284 283 277 277 275 275 275 275 275 275 274 278 281 281 282 281 274 273 273 273 273 273 272 272 271 269
282 282 281 281 281 281 280 279 279 279 278 278 277 278 278 278 284 285 285 277 276 276 275 275 275 275 275 274 273 273 273 273 274 275 275 274 274 275 275 275 271 266 268
282 281 281 282 281 280 280 279 279 278 278 278 278 278 278 278 283 284 284 280 278 276 276 275 275 275 277 280 276 271 272 273 277 280 281 281 282 283 279 272 262 256 263
281 281 282 282 281 280 281 279 279 279 279 278 278 279 278 279 282 284 284 280 278 277 276 276 278 276 278 280 276 271 270 272 272 271 273 275 276 272 275 272 269 262 262
281 281 281 282 281 282 281 281 279 279 278 278 278 278 279 279 279 284 286 280 279 277 276 274 275 280 281 282 282 275 273 275 274 276 272 270 269 269 269 269 269 268 264
280 280 280 281 282 282 281 280 280 280 279 278 278 277 277 277 278 281 285 285 282 276 275 275 274 279 280 281 280 281 282 281 278 265 265 266 266 267 268 268 269 269 268
281 281 282 282 282 282 282 281 280 281 280 279 277 277 276 273 274 281 281 283 284 281 277 276 278 279 280 280 281 281 280 275 271 263 264 267 268 268 268 267 267 266 266
282 282 282 282 282 283 283 282 282 280 278 277 275 276 275 271 271 272 273 276 278 278 276 270 274 277 279 278 272 274 274 273 271 271 270 269 267 266 265 265 262 262 259
279 277 279 279 280 278 277 278 278 276 279 277 276 276 270 269 271 273 272 268 266 268 263 259 261 263 264 266 267 267 266 266 266 268 268 267 266 265 264 263 262 257 255
274 275 275 275 274 274 272 271 277 277 280 279 278 273 267 274 277 278 278 277 276 277 263 260 262 263 264 264 263 263 264 264 264 263 266 264 264 263 262 261 259 255 257
274 273 273 272 272 271 271 272 271 275 280 280 279 278 276 276 278 279 279 279 277 272 262 258 258 259 258 259 259 259 260 261 261 263 263 262 262 261 259 257 256 258 257
271 270 270 269 270 269 270 270 270 271 270 270 278 278 279 279 279 278 278 270 257 257 251 251 251 251 253 254 254 255 256 256 257 257 258 257 256 258 254 251 256 256 256
269 267 265 264 264 265 265 265 264 265 265 261 262 266 266 275 275 273 267 254 251 250 247 248 247 248 249 248 249 250 250 250 251 250 250 252 252 252 247 253 256 257 257
262 263 263 263 262 262 262 261 260 260 260 260 258 256 253 256 252 249 248 247 246 247 246 246 246 244 244 245 246 246 246 246 247 247 248 249 250 252 253 254 255 255 254
259 259 260 259 259 257 257 259 259 258 258 256 254 256 261 254 252 249 248 247 247 246 246 245 244 244 243 243 243 244 244 247 246 246 247 248 249 249 253 255 255 254 251
256 255 255 254 255 256 255 256 256 256 255 255 253 255 268 254 251 250 247 248 246 245 245 245 245 245 246 246 246 245 245 247 245 245 247 248 248 249 252 253 252 251 245
256 255 254 252 254 255 253 251 253 253 251 251 252 254 251 248 248 248 248 247 248 248 248 244 245 246 246 245 246 249 249 250 250 247 249 247 249 251 251 250 248 241 242
255 254 254 252 252 252 251 249 252 254 255 253 251 250 252 249 247 249 248 247 247 247 246 245 246 247 246 246 245 245 247 249 245 248 249 247 246 248 247 242 243 243 245
252 253 253 252 251 252 253 252 252 251 250 252 253 251 251 252 251 247 246 245 245 245 247 247 247 247 248 249 248 246 246 253 250 249 246 245 246 245 242 242 242 242 244
251 252 250 249 249 249 249 251 251 252 252 253 253 254 252 252 252 251 248 245 247 248 248 248 248 248 249 249 249 251 251 255 252 251 249 248 246 245 243 243 242 243 245
Wind_Speed
12 11 12 11 12 12 12 12 11 10 11 11 10 9 9 8 7 7 7 7 8 6 5 6 6 5 4 4 3 2 3 3 3 3 3 3 2 3 6 5 7 6 6
12 12 12 13 12 13 12 12 11 12 10 10 10 9 8 8 8 9 9 7 8 8 7 6 6 4 5 5 3 4 4 4 3 5 3 2 4 4 7 7 6 6 7
12 12 11 12 13 13 13 12 12 11 10 9 9 10 10 10 9 7 7 8 7 7 8 7 7 6 5 4 4 4 4 3 4 3 3 2 3 2 6 5 7 8 6
13 14 14 14 14 13 13 13 13 13 13 11 10 9 9 9 8 8 7 6 6 6 6 6 6 7 6 6 5 6 5 4 3 3 4 5 3 3 4 6 12 7 10
15 15 15 13 13 13 13 13 13 12 11 10 9 7 7 8 7 8 8 7 7 6 5 6 6 6 10 9 4 5 5 4 3 3 5 4 5 4 4 3 7 10 10
16 15 13 13 13 13 13 13 13 12 11 11 10 10 9 6 14 15 10 7 6 7 7 6 5 6 10 13 14 14 10 5 4 3 5 7 8 5 3 4 7 7 9
14 12 13 14 14 14 14 14 14 14 13 12 11 11 10 7 17 16 16 6 7 6 6 6 5 5 7 5 11 14 13 14 14 6 8 8 8 4 5 6 6 7 10
14 13 14 14 14 13 14 14 13 12 13 12 11 11 9 8 16 17 16 6 5 7 7 7 6 6 7 6 6 6 6 7 8 7 8 8 8 8 6 4 4 6 10
15 15 15 16 16 15 15 14 12 10 8 9 9 10 9 6 17 18 14 7 7 8 7 7 7 7 10 15 6 6 8 9 10 17 19 21 21 16 6 3 2 2 9
13 13 13 14 15 15 14 13 10 9 9 7 7 8 9 8 16 21 16 5 7 6 6 7 14 10 14 15 8 5 9 9 5 6 8 11 8 2 6 4 4 5 4
9 10 11 11 12 13 12 9 11 9 8 7 6 6 10 10 10 20 17 7 8 6 6 5 5 14 17 17 17 6 9 8 10 10 5 3 3 3 4 5 7 6 5
11 11 9 10 9 9 13 10 11 11 10 8 8 7 7 7 12 17 22 22 14 8 7 5 5 13 15 15 12 15 19 16 5 1 2 3 4 5 5 6 6 5 5
11 11 10 11 10 11 12 12 10 9 8 8 8 8 8 6 6 19 18 21 20 11 6 8 12 12 15 12 14 14 11 2 2 2 5 6 5 3 4 3 3 5 7
11 11 11 12 11 10 8 7 7 8 8 7 8 9 6 4 5 4 3 5 11 9 4 1 2 6 9 8 2 4 4 3 4 7 7 4 2 2 3 3 2 1 2
8 8 7 7 9 7 5 7 7 5 9 9 8 7 6 6 6 10 9 5 4 5 3 2 2 1 1 1 1 2 2 2 3 5 5 6 4 4 3 2 1 0 2
8 6 5 6 6 6 6 4 4 7 11 9 10 8 2 5 11 14 13 12 11 12 3 2 1 2 2 2 1 2 2 2 2 2 5 5 5 4 3 1 1 2 4
7 6 5 6 6 7 6 7 7 5 10 9 9 9 12 10 12 12 13 9 9 7 4 2 2 2 2 1 2 2 2 2 2 2 4 2 2 2 2 1 1 3 4
6 7 4 4 4 5 5 5 6 8 7 3 5 7 10 11 11 10 11 10 4 6 3 3 3 3 2 2 2 2 2 2 2 2 2 1 1 2 1 1 3 3 5
6 4 4 4 3 4 4 4 4 4 5 4 3 7 4 11 10 10 7 3 3 2 2 2 2 3 2 2 2 2 2 2 2 2 2 2 2 2 2 2 4 7 7
5 7 5 4 4 4 4 4 4 4 5 5 4 3 1 4 2 2 2 2 3 2 3 3 3 3 3 3 2 3 3 2 2 2 3 3 2 2 2 3 4 5 3
4 4 6 5 4 3 3 4 4 4 4 4 3 3 8 4 4 3 3 3 3 3 4 3 3 3 3 3 3 3 3 3 3 3 3 3 2 2 3 4 5 4 2
5 4 3 4 3 4 3 3 3 4 3 4 1 1 8 3 3 3 3 3 4 3 3 4 3 4 4 4 4 4 3 4 3 3 3 3 3 3 3 4 4 3 2
5 5 5 4 4 5 5 3 4 4 3 2 2 2 2 2 3 3 3 3 3 2 2 3 4 4 4 4 4 4 4 5 5 4 3 3 3 3 3 4 3 2 3
5 5 5 4 4 4 4 3 3 3 3 3 2 1 2 2 3 2 3 2 2 3 3 4 4 6 5 5 4 4 4 4 3 4 6 4 3 4 3 3 4 4 4
4 5 4 4 4 4 4 3 3 3 2 3 3 3 2 3 3 3 3 2 3 3 5 4 4 6 8 9 8 7 7 9 5 6 4 4 6 6 4 4 4 3 3
4 4 3 3 3 3 3 2 2 2 3 3 3 3 3 4 4 3 3 4 4 5 6 4 5 8 9 7 9 9 9 11 9 9 6 5 5 5 4 6 6 4 5
Wind_Direction
171 165 164 162 163 163 171 167 162 155 155 159 158 153 152 144 137 129 138 146 137 137 137 129 125 134 140 150 148 132 174 173 198 281 239 245 290 273 291 274 280 287 312
169 167 173 164 165 169 171 167 159 162 160 158 156 153 150 149 151 151 155 160 152 152 150 135 151 155 159 172 170 191 193 188 186 255 265 274 234 262 279 291 307 317 313
166 167 170 172 170 175 169 162 161 155 156 155 158 163 163 160 158 162 161 162 160 157 159 163 168 161 179 179 190 203 199 200 195 234 282 256 271 273 311 293 315 315 312
171 174 178 181 176 172 166 166 165 164 162 166 171 165 163 160 164 166 160 157 158 166 166 170 168 182 185 189 202 208 200 204 208 228 260 273 256 280 275 321 322 324 322
178 182 186 175 172 168 166 166 163 164 166 162 156 155 153 164 172 167 166 164 167 167 174 186 189 189 208 204 189 209 202 204 203 226 259 272 276 283 287 303 300 312 320
185 186 176 169 166 168 165 166 163 162 156 153 160 162 167 176 187 184 170 169 175 183 193 200 197 206 224 227 233 228 206 186 200 199 255 262 275 276 251 288 302 310 315
184 176 170 167 170 170 163 162 167 167 159 165 165 166 177 176 187 191 193 179 188 195 192 194 202 208 211 224 250 256 260 262 244 211 249 249 270 233 274 294 289 297 292
181 175 170 168 167 162 161 168 166 165 168 169 172 175 176 189 190 206 200 175 193 202 198 199 199 210 209 215 227 239 245 246 252 262 262 268 254 261 247 266 314 301 295
185 179 174 169 164 164 171 167 157 153 162 170 170 166 176 177 197 213 203 185 204 218 204 203 203 221 229 243 232 231 249 250 250 262 264 262 266 268 300 349 321 15 300
179 174 170 168 166 167 160 156 150 153 163 164 165 178 181 199 208 215 208 180 206 215 209 213 215 225 242 247 250 221 258 265 240 247 251 268 278 274 275 280 262 251 266
149 150 159 163 159 159 149 147 145 152 148 160 165 176 205 204 210 221 222 206 214 214 215 218 213 236 251 255 255 222 234 264 260 262 239 200 223 234 238 243 239 241 252
135 140 143 136 137 141 142 142 150 155 162 169 182 202 219 209 214 228 224 225 213 205 218 213 193 234 250 260 264 265 273 279 275 199 227 227 230 226 218 224 232 247 257
126 135 138 136 140 145 151 159 160 165 175 187 193 207 218 203 209 222 226 230 236 224 207 209 221 233 250 263 270 277 287 261 226 211 243 245 224 212 196 224 232 261 271
140 146 150 150 150 156 164 163 167 177 185 186 194 209 206 175 195 193 214 229 247 245 275 9 249 263 262 268 316 294 299 289 260 270 270 274 178 199 210 220 222 235 282
122 127 136 139 151 144 130 161 175 186 193 192 204 193 171 200 209 198 194 201 208 223 115 60 43 38 45 313 298 271 251 250 262 267 276 278 265 252 241 215 241 214 227
122 135 143 137 132 134 128 101 128 166 182 193 187 172 193 176 188 195 196 196 202 205 117 129 107 72 76 44 356 305 293 260 252 266 284 269 271 256 254 253 230 194 275
126 130 126 126 138 143 144 146 135 140 154 149 149 163 168 170 164 167 175 164 101 87 91 90 130 138 173 225 270 278 278 295 297 286 290 271 250 259 274 271 260 285 287
89 83 103 107 122 129 145 145 143 151 150 127 118 149 161 159 163 160 130 107 50 37 89 139 160 168 181 204 253 259 283 305 299 281 274 262 252 247 260 272 286 280 279
104 104 110 106 105 117 118 119 116 121 129 128 79 61 44 138 134 110 64 92 119 118 136 137 175 184 205 226 256 267 257 265 268 278 268 241 234 179 252 247 276 277 281
75 97 96 106 113 113 115 126 125 131 136 146 137 152 97 57 73 42 49 106 116 156 172 187 203 198 210 215 250 241 271 284 282 261 253 244 234 198 237 240 257 271 263
75 69 87 77 90 103 112 127 131 131 142 144 146 173 168 142 158 151 162 170 171 175 180 197 217 223 217 222 219 224 223 257 246 248 249 247 216 229 227 251 268 264 256
84 85 73 102 110 92 91 91 95 105 115 128 127 288 140 89 129 154 182 197 202 195 186 180 215 213 212 205 210 213 223 242 251 244 251 229 212 223 228 251 259 263 245
83 90 77 64 76 92 77 72 97 102 110 116 115 102 85 153 172 191 213 222 207 214 197 190 225 253 232 225 212 208 213 230 227 205 227 222 205 230 225 245 239 244 221
77 80 87 76 67 73 83 88 91 116 131 137 128 153 175 191 216 239 243 258 260 258 238 218 218 231 249 251 231 224 224 238 212 218 215 201 209 227 219 224 223 215 234
97 103 106 122 121 126 125 123 122 134 146 169 197 213 217 224 222 231 230 230 239 246 250 232 226 232 242 247 251 244 236 253 234 210 198 189 213 207 214 216 215 221 217
70 82 95 100 103 122 133 152 175 183 196 208 215 215 220 231 239 244 237 234 242 238 246 236 238 247 252 250 250 251 243 246 235 226 207 198 208 218 203 225 225 218 232